#timestamp,LO_Frequency,Hit,StdDev 
1699207215.4,286046996.6,N
1699207235.2,286047001.9,N
1699207255.1,286047008.7,N
1699207256.0,286047008.7,N
1699207275.8,286047000.3,N
1699207295.6,286047006.3,N
1699207315.5,286047013.7,N
1699207335.3,286047011.1,N
1699207355.1,286047008.6,N
1699207375.9,286047011.4,N
1699207395.7,286047015.0,Y
1699207415.6,286047005.3,P
1699207435.4,286047004.8,P
1699207455.2,286047003.1,P
1699207475.1,286047002.1,N
1699207476.0,286047002.1,N
1699207495.8,286047004.1,N
1699207515.6,286047001.6,N
1699207535.5,286047001.4,N
1699207555.3,286047005.8,Y
1699207575.2,286047002.8,P
1699207595.9,286047002.0,P
1699207615.7,286047001.4,N
1699207635.6,286047000.3,N
1699207655.4,286047000.9,N
1699207675.3,286047000.8,N
1699207695.1,286046999.8,N
1699207696.0,286046999.8,N
1699207715.8,286047011.9,Y
1699207735.7,286046999.0,P
1699207755.5,286046998.2,N
1699207775.3,286046997.9,N
1699207795.2,286046995.5,Y
1699207815.0,286047005.8,P
1699207815.9,286047005.8,N
1699207835.8,286047007.1,N
1699207855.6,286047004.4,N
1699207875.4,286047001.9,N
1699207895.3,286047003.9,N
1699207915.1,286047009.0,Y
1699207935.9,286047011.3,P
1699207955.7,286047008.4,N
1699207975.5,286047005.1,N
1699207995.4,286047000.4,N
1699208015.2,286046997.1,N
1699208035.0,286046994.1,N
1699208035.9,286046994.1,N
1699208055.8,286046995.8,N
1699208075.6,286046993.9,N
1699208095.4,286046995.9,N
1699208115.3,286046991.8,N
1699208135.1,286046988.7,N
1699208155.9,286046987.1,N
1699208175.7,286046987.2,N
1699208195.5,286046988.3,N
1699208215.4,286046990.5,N
1699208235.2,286046993.1,N
1699208255.0,286046992.6,N
1699208255.9,286046992.6,N
1699208275.8,286046991.8,N
1699208295.6,286046992.3,N
1699208315.5,286046993.4,N
1699208335.3,286046995.4,N
1699208355.1,286046993.6,N
1699208375.9,286046993.7,N
1699208395.7,286046999.3,N
1699208415.5,286046999.5,N
1699208465.4,286046999.7,E
1699208475.3,286047001.5,N
1699208495.2,286046999.7,P
1699208515.0,286046995.4,P
1699208515.9,286046995.4,N
1699208535.7,286046995.3,N
1699208555.6,286046995.7,N
1699208575.4,286046996.0,N
1699208595.3,286046994.4,N
1699208615.1,286046994.7,N
1699208616.0,286046994.7,N
1699208635.8,286046994.6,N
1699208655.7,286046994.3,N
1699208675.5,286046992.4,Y
1699208695.4,286046998.3,P
1699208715.2,286047001.5,N
1699208735.0,286047006.8,N
1699208735.9,286047006.8,N
1699208755.8,286047010.2,N
1699208775.6,286047010.0,N
1699208795.4,286047010.3,N
1699208815.3,286047010.2,N
1699208835.1,286047007.7,N
1699208855.9,286047007.0,N
1699208875.7,286047005.0,N
1699208895.5,286047004.0,N
1699208915.4,286047003.8,N
1699208935.2,286047003.3,N
1699208955.0,286047003.9,N
1699208955.9,286047003.9,N
1699208975.8,286047007.5,N
1699208995.6,286047008.7,N
1699209015.4,286047006.1,N
1699209035.3,286047004.1,N
1699209055.1,286047006.0,N
1699209075.9,286047004.4,N
1699209095.7,286047001.6,N
1699209115.5,286047000.4,N
1699209135.4,286047001.2,N
1699209155.2,286047001.9,N
1699209175.0,286047003.8,N
1699209175.9,286047003.8,N
1699209195.8,286047005.3,N
1699209215.6,286047005.7,N
1699209235.5,286047003.9,N
1699209255.3,286047005.2,N
1699209275.1,286047003.2,N
1699209295.9,286047005.2,N
1699209315.7,286047007.4,N
1699209335.5,286047006.1,N
1699209355.4,286047007.3,Y
1699209375.2,286046999.7,P
1699209395.1,286047000.9,N
1699209396.0,286047000.9,N
1699209415.8,286047004.4,N
1699209435.6,286047010.6,Y
1699209455.5,286047006.8,P
1699209475.3,286047006.5,N
1699209495.1,286047005.3,N
1699209515.9,286047004.0,N
1699209535.7,286047000.3,N
1699209555.6,286047004.5,N
1699209575.4,286047003.8,N
1699209595.2,286047000.4,N
1699209615.1,286047000.1,N
1699209616.0,286047000.1,N
1699209635.8,286047007.5,Y
1699209655.7,286047000.3,P
1699209675.5,286047000.8,N
1699209695.3,286046999.7,N
1699209715.2,286047003.2,N
1699209735.9,286047006.0,Y
1699209755.7,286047001.7,P
1699209775.6,286047003.8,P
1699209795.4,286047004.2,P
1699209815.3,286047000.2,N
1699209835.1,286046996.6,N
1699209836.0,286046996.6,N
1699209855.8,286046997.2,N
1699209875.7,286046993.7,N
1699209895.5,286046993.4,N
1699209915.3,286046992.4,N
1699209935.2,286046989.9,N
1699209955.0,286046991.0,N
1699209955.9,286046991.0,N
1699209975.8,286046994.0,N
1699209995.6,286046995.2,N
1699210015.4,286046997.2,N
1699210035.3,286046994.6,N
1699210055.1,286046992.1,N
1699210075.8,286046991.8,N
1699210095.7,286046995.6,N
1699210115.5,286046997.3,N
1699210135.4,286047011.9,N
1699210155.2,286046993.8,N
1699210175.0,286046992.7,N
1699210175.9,286046992.7,N
1699210195.8,286046990.5,N
1699210215.6,286046994.7,N
1699210235.5,286046997.8,N
1699210255.3,286046997.4,N
1699210275.1,286046995.9,N
1699210295.9,286046995.0,N
1699210315.7,286047000.9,N
1699210335.5,286047002.7,N
1699210355.4,286046999.3,N
1699210375.2,286046997.2,N
1699210395.1,286046999.1,N
1699210396.0,286046999.1,N
1699210415.8,286047002.0,N
1699210435.6,286047004.4,N
1699210455.5,286047001.6,N
1699210475.3,286046999.4,N
1699210495.2,286046997.1,N
1699210515.9,286046998.5,N
1699210535.7,286047000.6,N
1699210555.6,286046999.5,N
1699210575.4,286046996.1,N
1699210595.2,286046995.3,N
1699210615.1,286046998.5,N
1699210616.0,286046998.5,N
1699210635.8,286046996.8,N
1699210655.7,286046993.5,N
1699210675.5,286046992.7,N
1699210695.3,286046992.3,N
1699210715.2,286046996.1,N
1699210735.0,286046994.4,N
1699210735.9,286046994.4,N
1699210755.7,286046994.1,N
1699210775.6,286046993.9,N
1699210795.4,286046994.1,N
